Lexington Weather

Lexington, Massachusetts, USA

77°F
7/25/2024 11:51am 
  • Lexington Conditions: Mostly cloudy
  • Temperature: 77.4°F / 25.2°CWarmer 1.1°F than last hour.
  • Dew Point: 72.9°FIncreased 0.8°Fsince last hour.
  • Relative Humidity: 86%Decreased 1.0% since last hour.
  • Wind: Wind from W W 2 mph, 10-min avg: 2 mph, gust: 10 mph
  • Barometer: 29.94 inFalling 0.02  inHg/hr Falling Slowly
  • Visibility: 10 miles
  • Rain Today: 0.00 in
  •   

Regional Weather Roundup
for Boston, MA

        
000
ASUS41 KBOX 230210
RWRBOX

REGIONAL WEATHER ROUNDUP
NATIONAL WEATHER SERVICE BOSTON/NORTON MA
1000 PM EDT MON JUL 22 2024

NOTE:  "FAIR" INDICATES FEW OR NO CLOUDS BELOW 12,000 FEET WITH NO 
SIGNIFICANT WEATHER AND/OR OBSTRUCTIONS TO VISIBILITY.

MAZALL-230300-
EASTERN MASSACHUSETTS
  
CITY           SKY/WX    TMP DP  RH WIND       PRES   REMARKS
BOSTON         CLOUDY    75  64  68 S8        30.06R                  
BEVERLY        CLOUDY    77  65  66 SW12      30.04R                  
LAWRENCE       CLOUDY    78  68  71 SW8       30.06R                  
BEDFORD        CLOUDY    75  66  73 S6        30.04R                  
NORWOOD        CLOUDY    75  68  78 S3        30.06R                  
MARSHFIELD     CLOUDY    75  70  83 SW6       30.06S                  
PLYMOUTH       CLOUDY    75  71  87 S5        30.07R                  
TAUNTON        CLOUDY    77  71  82 CALM      30.06F                  
NEW BEDFORD    CLOUDY    76  74  93 S5        30.07R                  
$$

MAZALL-230300-
CAPE COD AND THE ISLANDS
  
CITY           SKY/WX    TMP DP  RH WIND       PRES   REMARKS
FALMOUTH       MOCLDY    75  72  88 S9        30.10R                  
HYANNIS        CLOUDY    75  73  93 S9        30.07S                  
CHATHAM        CLOUDY    76  73  91 S8        30.09R                  
PROVINCETOWN   CLOUDY    73  71  93 S7        30.09R                  
NANTUCKET      CLOUDY    72  71  97 S12       30.08S                  
MARTHAS VNYRD  CLOUDY    74  71  91 S9        30.08R                  
$$
 
MAZALL-230300-
CENTRAL AND WESTERN MASSACHUSETTS
  
CITY           SKY/WX    TMP DP  RH WIND       PRES   REMARKS
WORCESTER      CLOUDY    73  67  81 SW7       30.09R                  
FITCHBURG      CLOUDY    77  64  64 S7        30.06R                  
ORANGE           N/A     74  67  78 S6        30.07R                  
SPRINGFIELD    CLOUDY    74  67  79 S5        30.02R                  
WESTFIELD      CLOUDY    74  68  81 S3        30.04R                  
NORTH ADAMS    MOCLDY    74  66  76 CALM      30.04R                  
PITTSFIELD     CLOUDY    71  66  84 S5        30.06R                  
$$
 
RIZALL-230300-
RHODE ISLAND
  
CITY           SKY/WX    TMP DP  RH WIND       PRES   REMARKS
PROVIDENCE     CLOUDY    75  72  90 S6        30.07R                  
NEWPORT        CLOUDY    73  72  96 S7        30.07S                  
BLOCK ISLAND   CLOUDY    73  70  90 S9          N/A                   
SMITHFIELD     CLOUDY    73  73 100 VRB6      30.08R                  
WESTERLY       CLOUDY    74  71  91 SE7       30.06S                  
$$
 
CTZALL-230300-
CONNECTICUT
  
CITY           SKY/WX    TMP DP  RH WIND       PRES   REMARKS
BRADLEY INTL   CLOUDY    77  69  76 S9        30.04R                  
HARTFORD       CLOUDY    76  71  85 SE5       30.04R                  
PLAINVILLE     CLOUDY    75  71  87 CALM      30.04R                  
BRIDGEPORT     CLOUDY    76  72  87 SE6       30.03R                  
DANBURY        CLOUDY    75  70  84 CALM      30.06R                  
GROTON         LGT RAIN  74  73  97 SE6       30.05S                  
NEW HAVEN      CLOUDY    79  75  87 SE3       30.04R                  
CHESTER        DRIZZLE   73  73 100 SE5       30.07R                  
MERIDEN        CLOUDY    76  69  79 S5        30.04R                  
WILLIMANTIC    CLOUDY    74  71  91 S3        30.06R                  
OXFORD         CLOUDY    72  70  94 SE6       30.07R                  
$$

MEZ002-015-021-024-NHZ003-005-008-011-012-014-VTZ005-008-230300-
NORTHERN NEW ENGLAND
  
CITY           SKY/WX    TMP DP  RH WIND       PRES   REMARKS
PORTLAND ME    PTCLDY    69  67  93 CALM      30.05R                  
BANGOR ME      PTCLDY    67  61  81 S6        30.06R                  
CONCORD NH     MOCLDY    74  66  76 CALM      30.04R                  
MANCHESTER NH  CLOUDY    80  67  64 S7        30.03R                  
NASHUA NH      MOCLDY    77  70  79 CALM      30.05R                  
PORTSMOUTH NH  CLOUDY    71  67  87 CALM      30.03R                  
JAFFREY NH     MOCLDY    75  67  76 S6        30.08R                  
KEENE NH       MOCLDY    75  69  81 S5        30.04R                  
BURLINGTON VT  CLOUDY    77  63  61 S9G17     30.00R                  
MT. WASHINGTON CLOUDY    52  48  87 SW23        N/A                   
$$

NYZ052-076-230300-
EASTERN NEW YORK
  
CITY           SKY/WX    TMP DP  RH WIND       PRES   REMARKS
ALBANY         CLOUDY    76  65  68 S6        30.02R                  
NEW YORK CITY  CLOUDY    78  71  79 S6        30.01R                  
$$
 
ANZALL-230300-
MARINE OBSERVATIONS
  
STATION/POSITION TIME  TEMP    WIND        PRES    VSBY  WAVE
                       AIR SEA DIR/SP/G                  HT/PER
                 (UTC) (F)     (DEG/KT/KT) (MB)    (MI)  (FT/S)
BOSTON BUOY      0150   69 67  150/  6/  6 1018.3R         1/10
BUZZARDS BAY     0100   74     190/ 11/ 11 1018.3R
NANTUCKET SOUND  0150   75 76  190/ 12/ 14 1018.3R         1
MASS BAY-STELLWA 0004   70 63  190/ 12/ 14 1017.1R  1 7/8  1/ 8
ISLE OF SHOALS   0100   72     190/ 16/ 17 1016.2R
S OF BLOCK IS    0156      74                N/A           2/ 9
$$

......................KEY.........................
  SKY/WX - SKY CONDITION/PRESENT WEATHER
  TMP    - TEMPERATURE IN FAHRENHEIT
  DWPT   - DEWPOINT IN FAHRENHEIT
  RH     - RELATIVE HUMIDITY IN PERCENT
  WIND   - DIRECTION AND SPEED IN MPH
  PRES   - MEAN SEA LEVEL PRESSURE IN INCHES OF HG
  WCI    - WIND CHILL INDEX
  VSB    - VISIBILITY IN MILES
  HX     - HEAT INDEX
  TC     - TEMPERATURE IN CELSIUS
  VRB    - VARIABLE WIND DIRECTION
  N/A    - NOT AVAILABLE
  
      

Other recent Regional Weather Roundups

Thu Jul 25, 11:10am EDT

Thu Jul 25, 10:10am EDT

Thu Jul 25, 9:10am EDT

Thu Jul 25, 8:10am EDT

Thu Jul 25, 7:10am EDT

Thu Jul 25, 6:10am EDT

Thu Jul 25, 5:10am EDT

Thu Jul 25, 4:10am EDT

Thu Jul 25, 3:10am EDT

Thu Jul 25, 2:10am EDT

Thu Jul 25, 1:10am EDT

Thu Jul 25, 12:10am EDT

Wed Jul 24, 11:10pm EDT

Wed Jul 24, 10:10pm EDT

Wed Jul 24, 9:10pm EDT

Wed Jul 24, 8:10pm EDT

Wed Jul 24, 7:10pm EDT

Wed Jul 24, 6:10pm EDT

Wed Jul 24, 5:10pm EDT

Wed Jul 24, 4:10pm EDT

Wed Jul 24, 3:10pm EDT

Wed Jul 24, 2:10pm EDT

Wed Jul 24, 1:10pm EDT

Wed Jul 24, 12:10pm EDT

Wed Jul 24, 11:10am EDT

Wed Jul 24, 10:10am EDT

Wed Jul 24, 9:10am EDT

Wed Jul 24, 8:10am EDT

Wed Jul 24, 7:10am EDT

Wed Jul 24, 6:10am EDT

Wed Jul 24, 5:10am EDT

Wed Jul 24, 4:10am EDT

Wed Jul 24, 3:10am EDT

Wed Jul 24, 2:10am EDT

Wed Jul 24, 1:10am EDT

Wed Jul 24, 12:10am EDT

Tue Jul 23, 11:10pm EDT

Tue Jul 23, 10:10pm EDT

Tue Jul 23, 9:10pm EDT

Tue Jul 23, 8:10pm EDT

Tue Jul 23, 7:10pm EDT

Tue Jul 23, 6:10pm EDT

Tue Jul 23, 5:10pm EDT

Tue Jul 23, 4:10pm EDT

Tue Jul 23, 3:10pm EDT

Tue Jul 23, 2:10pm EDT

Tue Jul 23, 1:10pm EDT

Tue Jul 23, 12:10pm EDT

Tue Jul 23, 11:10am EDT

Tue Jul 23, 10:10am EDT

Tue Jul 23, 10:10am EDT

Tue Jul 23, 9:10am EDT

Tue Jul 23, 8:10am EDT

Tue Jul 23, 7:10am EDT

Tue Jul 23, 6:10am EDT

Tue Jul 23, 5:10am EDT

Tue Jul 23, 4:10am EDT

Tue Jul 23, 3:10am EDT

Tue Jul 23, 2:10am EDT

Tue Jul 23, 1:10am EDT

Tue Jul 23, 12:10am EDT

Mon Jul 22, 11:10pm EDT

Mon Jul 22, 9:10pm EDT

Mon Jul 22, 8:10pm EDT

Mon Jul 22, 7:10pm EDT

Mon Jul 22, 6:10pm EDT

Mon Jul 22, 5:10pm EDT

Mon Jul 22, 4:10pm EDT

Mon Jul 22, 3:10pm EDT

Mon Jul 22, 2:10pm EDT

Mon Jul 22, 1:10pm EDT

Mon Jul 22, 12:10pm EDT

Mon Jul 22, 11:10am EDT

Mon Jul 22, 10:10am EDT

Mon Jul 22, 9:10am EDT

Mon Jul 22, 8:10am EDT

Mon Jul 22, 7:10am EDT

Mon Jul 22, 6:10am EDT

Mon Jul 22, 5:10am EDT

Mon Jul 22, 4:10am EDT

Mon Jul 22, 3:10am EDT

Mon Jul 22, 2:10am EDT

Mon Jul 22, 1:10am EDT

Mon Jul 22, 12:10am EDT

Sun Jul 21, 11:10pm EDT

Sun Jul 21, 10:10pm EDT

Sun Jul 21, 9:10pm EDT

Sun Jul 21, 8:10pm EDT

Sun Jul 21, 7:10pm EDT

Sun Jul 21, 6:10pm EDT

Sun Jul 21, 5:10pm EDT

Sun Jul 21, 4:10pm EDT

Sun Jul 21, 3:10pm EDT

Sun Jul 21, 2:10pm EDT

Sun Jul 21, 1:10pm EDT

Sun Jul 21, 12:10pm EDT

Sun Jul 21, 11:10am EDT

Sun Jul 21, 10:10am EDT

Sun Jul 21, 9:10am EDT

Sun Jul 21, 8:10am EDT

Sun Jul 21, 7:10am EDT

Sun Jul 21, 6:10am EDT

Sun Jul 21, 5:10am EDT

Sun Jul 21, 4:10am EDT

Sun Jul 21, 3:10am EDT

Sun Jul 21, 2:10am EDT

Sun Jul 21, 1:10am EDT

Sun Jul 21, 12:10am EDT

Sat Jul 20, 11:10pm EDT

Sat Jul 20, 10:10pm EDT

Sat Jul 20, 9:10pm EDT

Sat Jul 20, 8:10pm EDT

Sat Jul 20, 7:10pm EDT

Sat Jul 20, 6:10pm EDT

Sat Jul 20, 5:10pm EDT

Sat Jul 20, 4:10pm EDT

Sat Jul 20, 3:10pm EDT

Sat Jul 20, 2:10pm EDT

Sat Jul 20, 1:10pm EDT

Sat Jul 20, 12:10pm EDT

Sat Jul 20, 11:10am EDT

Sat Jul 20, 10:10am EDT

Sat Jul 20, 9:10am EDT

Sat Jul 20, 8:10am EDT

Sat Jul 20, 7:10am EDT

Sat Jul 20, 6:10am EDT

Sat Jul 20, 5:10am EDT

Sat Jul 20, 4:10am EDT

Sat Jul 20, 3:10am EDT

Sat Jul 20, 2:10am EDT

Sat Jul 20, 1:10am EDT

Sat Jul 20, 12:10am EDT

Fri Jul 19, 11:10pm EDT

Fri Jul 19, 10:10pm EDT

Fri Jul 19, 9:10pm EDT

Fri Jul 19, 8:10pm EDT

Fri Jul 19, 7:10pm EDT

Fri Jul 19, 6:10pm EDT

Fri Jul 19, 5:10pm EDT

Fri Jul 19, 4:10pm EDT

Fri Jul 19, 3:10pm EDT

Fri Jul 19, 2:10pm EDT

Fri Jul 19, 1:10pm EDT

Fri Jul 19, 12:10pm EDT

Fri Jul 19, 11:10am EDT

Fri Jul 19, 10:10am EDT

Fri Jul 19, 9:10am EDT

Fri Jul 19, 8:10am EDT

Fri Jul 19, 7:10am EDT

Fri Jul 19, 6:10am EDT

Fri Jul 19, 5:10am EDT

Fri Jul 19, 4:10am EDT

Fri Jul 19, 3:10am EDT

Fri Jul 19, 2:10am EDT

Fri Jul 19, 1:10am EDT

Fri Jul 19, 12:10am EDT

Thu Jul 18, 11:10pm EDT

Thu Jul 18, 10:10pm EDT

Thu Jul 18, 9:10pm EDT

Thu Jul 18, 8:10pm EDT

Thu Jul 18, 7:10pm EDT

Thu Jul 18, 6:10pm EDT

Thu Jul 18, 5:10pm EDT

Thu Jul 18, 4:10pm EDT

Thu Jul 18, 3:10pm EDT

Thu Jul 18, 2:10pm EDT

Thu Jul 18, 1:10pm EDT

Thu Jul 18, 12:10pm EDT